Theta_e
294 294 294 294 294 293 294 294 294 294 294 294 294 294 294 294 295 295 295 295 295 295 296 296 296 296 296 295 295 295 294 294 294 294 293 293 293 292 292 292 291 291 292 292 292 292 292 292 291 291 291 292 292 292 292 292 292 293 293 293 293 294 294 294 295 295 295 296 296 296 296 296 295 295 295 295 295 295 295 295 295 295 296 296 296 296
294 293 293 293 293 293 293 293 293 293 293 294 294 294 294 294 294 294 294 294 294 294 294 294 294 294 294 294 294 293 293 292 292 292 292 292 291 291 291 291 291 291 291 291 291 291 291 291 291 291 291 291 291 291 291 291 292 292 292 293 293 294 294 294 294 294 295 295 295 295 295 295 295 295 294 294 294 295 295 295 295 295 295 295 296 296
292 292 292 292 292 292 292 292 292 292 292 293 293 293 293 293 293 293 293 293 293 292 292 292 292 292 292 292 292 292 291 291 291 291 291 291 291 291 291 291 291 290 290 290 289 289 290 290 290 290 290 290 290 291 291 291 291 292 292 292 293 293 293 294 294 294 294 294 294 294 294 294 294 294 294 294 294 294 294 294 295 295 295 295 295 295
292 291 292 292 292 292 292 291 291 291 292 292 292 292 292 292 292 292 291 291 291 291 290 290 290 290 289 289 290 290 290 290 291 291 291 291 291 290 290 290 289 289 289 289 289 289 289 289 289 290 290 290 291 291 292 292 292 292 293 293 293 293 293 293 293 293 293 293 293 293 293 293 293 293 293 293 293 293 293 293 294 294 294 294 294 295
291 291 291 291 292 292 292 291 291 291 291 291 291 291 291 291 291 291 290 290 290 289 289 289 288 288 288 288 288 289 289 289 290 290 290 289 289 289 289 288 288 288 288 288 288 288 288 288 289 289 290 290 291 291 292 292 292 293 292 293 293 293 293 293 292 292 292 292 292 292 292 292 292 292 292 292 292 292 292 292 293 293 293 293 294 294
290 290 291 291 291 291 291 291 291 291 291 291 291 291 290 290 290 289 289 289 288 288 288 288 288 288 288 287 287 287 288 288 289 289 289 288 288 288 288 288 288 288 287 287 287 287 287 287 288 288 289 289 290 290 291 291 291 292 292 292 292 292 292 292 291 291 291 291 291 291 291 291 291 291 291 291 291 291 291 292 292 292 292 293 293 293
290 290 290 291 291 291 291 291 290 290 290 290 290 289 289 289 289 288 288 288 288 288 288 288 288 287 287 287 287 287 287 287 288 288 288 288 288 287 287 287 287 287 286 286 286 286 286 286 286 287 288 288 289 289 290 290 290 291 291 291 291 291 291 291 291 291 291 291 290 290 290 291 291 291 291 291 291 291 291 291 291 292 292 292 292 293
289 289 289 290 290 290 290 290 289 289 289 289 289 288 288 288 288 288 288 288 288 288 288 288 288 287 287 287 287 287 287 287 287 287 287 287 287 287 287 286 286 286 286 285 285 285 285 285 285 286 286 287 288 288 289 289 289 290 290 290 290 290 290 290 290 290 290 290 290 290 290 290 290 290 290 290 290 290 291 291 291 291 292 292 292 292
289 289 289 289 289 289 289 289 289 288 288 288 288 288 288 288 288 288 288 288 288 288 288 288 288 288 287 287 287 287 287 287 287 287 287 286 286 286 286 286 286 285 285 285 284 284 284 284 284 284 285 286 286 287 288 288 288 289 289 289 289 289 289 289 289 289 289 289 289 289 289 289 289 289 290 290 290 290 290 291 291 291 291 291 292 292
289 289 289 289 289 289 289 288 288 288 288 288 288 288 288 288 288 288 288 288 288 288 287 287 287 287 287 287 287 287 287 286 286 286 286 286 286 285 285 285 285 285 285 284 284 284 283 283 283 283 284 285 285 286 287 287 287 288 288 288 288 288 288 288 288 288 288 288 288 288 289 289 289 289 290 290 290 290 290 291 291 291 291 292 292 292
289 289 289 289 289 289 288 288 288 288 288 288 288 288 288 288 287 287 287 287 287 287 287 287 287 287 287 287 286 286 286 286 286 286 285 285 285 285 285 285 284 284 284 284 284 283 283 283 283 283 283 284 285 285 286 286 286 287 287 287 287 287 287 287 287 287 287 287 287 288 288 289 289 289 290 290 290 290 291 291 291 291 291 292 292 292
289 289 289 289 289 288 288 288 288 288 288 288 288 288 287 287 287 287 287 287 287 287 287 287 286 286 286 286 286 285 285 285 285 285 285 285 285 284 284 284 284 284 284 284 283 283 283 283 282 282 283 283 284 284 284 285 285 285 285 286 286 286 286 286 286 286 286 287 288 288 289 289 289 290 290 290 290 291 291 291 291 291 291 291 291 291
289 289 289 289 288 288 288 288 288 288 287 287 287 287 286 286 286 286 286 286 286 286 286 286 286 285 285 285 285 285 285 285 285 284 284 284 284 284 284 284 284 284 284 283 283 283 282 282 282 282 283 283 283 284 284 284 284 284 285 285 285 285 285 285 286 286 287 288 288 289 289 289 290 290 290 290 291 291 291 291 291 291 291 291 291 291
289 288 288 288 288 287 287 287 287 287 286 286 286 286 286 286 286 285 285 285 285 285 285 285 285 285 285 285 285 285 284 284 284 284 284 284 284 284 284 284 284 283 283 283 283 282 282 282 282 283 283 283 283 283 284 284 284 284 284 284 284 285 285 286 287 287 288 288 289 289 289 289 290 290 290 290 290 291 291 291 291 291 291 291 291 291
288 288 287 287 287 287 286 286 286 286 286 286 286 286 285 285 285 285 285 285 285 285 285 285 285 285 285 285 285 284 284 284 284 284 284 284 284 284 284 283 283 283 282 282 282 282 282 282 282 283 283 283 283 283 283 284 284 284 284 285 285 286 287 287 287 288 288 288 289 289 289 289 289 290 290 290 290 290 290 290 290 291 291 291 291 291
287 287 287 286 286 286 286 286 286 286 285 285 285 285 285 285 285 285 285 285 285 285 285 284 284 285 285 285 284 284 284 284 283 283 283 283 283 283 283 282 282 282 282 282 282 282 282 282 282 283 283 283 283 283 283 284 284 285 285 286 286 287 287 287 287 288 288 288 288 289 289 289 289 289 290 290 290 290 290 290 290 290 290 290 290 290
287 286 286 286 286 286 285 285 285 285 285 285 285 285 285 285 285 285 285 284 284 284 284 284 284 284 284 284 284 284 283 283 283 282 282 282 282 282 282 282 282 282 282 282 282 282 282 283 283 283 283 283 283 283 283 283 284 285 285 286 286 286 287 287 287 287 288 288 288 288 289 289 289 289 289 289 289 289 289 289 290 290 290 290 290 290
286 286 286 286 285 285 285 285 285 285 285 285 285 284 284 284 284 284 284 284 284 284 284 284 284 283 284 284 284 283 283 283 282 282 282 282 282 282 282 282 282 282 282 282 282 282 282 282 283 283 283 283 283 283 283 283 284 284 284 285 285 286 286 286 287 287 288 288 288 288 288 288 289 289 289 289 289 289 289 289 289 290 290 290 290 290
286 286 285 285 285 285 285 285 285 285 284 284 284 284 284 284 284 284 284 284 284 284 283 283 283 283 283 283 283 282 282 282 282 281 281 281 282 282 282 282 282 282 282 282 282 282 282 282 282 283 283 283 283 283 283 283 283 283 284 284 285 285 285 286 286 287 287 288 288 288 288 288 289 289 289 289 289 289 289 289 289 289 289 289 289 290
286 285 285 285 285 285 285 284 284 284 284 284 284 284 284 284 284 284 284 284 284 283 283 283 283 282 282 282 282 282 282 281 281 281 281 281 281 282 282 282 282 282 282 282 282 282 282 282 282 283 283 283 283 283 283 283 283 283 283 284 284 284 285 285 286 286 287 287 288 288 288 289 289 289 289 289 289 289 289 289 289 289 289 289 289 289
285 285 285 285 285 284 284 284 284 284 284 284 284 284 284 284 284 284 283 283 283 283 282 282 282 282 282 281 281 281 281 281 281 281 281 281 281 282 282 281 281 281 281 282 282 282 282 282 282 283 283 283 283 283 283 283 283 283 283 284 284 284 285 285 286 286 287 287 287 288 288 288 288 288 288 288 288 288 288 288 288 288 288 289 289 289
285 285 285 284 284 284 284 284 284 284 284 284 284 284 284 284 284 283 283 283 283 282 282 282 282 282 281 281 281 281 281 281 281 281 280 281 281 282 281 281 281 281 281 281 282 282 282 282 282 283 283 283 283 283 283 283 283 283 283 284 284 284 284 285 286 286 287 287 288 288 288 288 288 288 288 288 288 288 288 288 288 288 288 288 288 288
285 285 284 284 284 284 284 284 284 284 284 284 284 284 284 284 283 283 283 283 283 282 282 282 282 282 281 281 281 281 281 281 281 280 280 281 281 281 281 281 281 281 281 281 281 282 282 283 283 283 283 283 283 283 283 283 283 284 284 284 284 284 285 286 286 287 287 287 288 288 287 287 287 287 287 287 287 287 287 287 287 288 288 288 288 288
284 284 284 284 284 284 284 284 284 284 284 284 284 284 284 283 283 283 283 283 283 283 283 282 282 282 281 281 281 281 281 281 280 280 280 281 281 281 281 280 280 280 280 280 281 282 282 283 283 283 283 283 283 283 283 283 283 284 284 285 285 285 286 286 287 287 287 287 287 287 287 287 287 287 287 287 287 287 287 287 287 287 287 287 287 287
283 284 284 284 283 283 283 283 283 283 283 283 283 283 283 283 283 283 283 283 283 283 282 282 282 282 282 281 281 281 280 280 280 280 280 280 280 280 280 280 280 280 280 280 280 281 282 282 282 282 282 282 283 283 283 283 284 284 285 285 286 286 286 286 286 286 286 286 286 286 286 286 286 286 286 286 286 287 287 287 287 287 287 287 287 287
283 283 283 283 283 283 283 283 282 282 282 282 282 282 283 283 283 283 283 283 282 282 282 282 282 282 282 281 281 281 280 280 280 280 280 280 280 280 280 280 280 279 279 280 280 280 281 281 281 281 281 282 282 282 282 283 283 284 284 284 285 285 285 285 285 285 285 285 285 285 285 285 285 285 285 286 286 286 286 286 287 287 287 287 287 287
283 283 283 283 283 282 282 282 282 281 281 280 281 281 282 283 283 283 283 282 282 282 283 283 282 282 282 282 281 281 281 280 280 280 280 280 280 280 280 280 279 279 279 279 280 280 281 281 281 281 281 281 281 281 282 282 283 283 283 283 284 284 284 284 284 284 285 284 284 284 284 284 285 285 285 285 286 286 286 286 286 286 287 287 287 287
283 282 282 282 282 282 282 282 282 281 281 280 280 281 282 282 282 282 282 282 282 282 282 282 282 282 282 282 282 281 281 280 280 280 280 280 280 280 280 279 279 278 279 279 280 280 281 281 280 280 281 281 281 281 281 281 282 282 282 283 283 283 284 284 284 284 284 284 284 284 284 284 284 284 285 285 285 285 285 286 286 286 286 286 286 286
282 282 282 282 282 282 282 282 282 281 281 280 280 280 281 281 281 281 281 281 281 281 282 282 282 282 282 282 282 281 281 281 281 280 280 279 280 279 279 279 279 278 279 279 280 280 281 281 280 280 281 281 281 281 281 282 282 282 282 283 283 283 283 283 283 283 283 283 283 283 283 283 284 284 284 284 285 285 285 285 285 285 286 286 286 286
282 282 282 281 281 281 281 281 281 281 280 280 279 279 280 280 280 281 281 281 281 281 281 281 281 281 281 282 282 281 281 281 280 280 279 279 280 280 279 279 279 279 279 279 280 281 281 281 280 280 281 281 281 282 282 282 282 283 283 283 283 283 283 283 283 283 283 282 282 283 283 283 283 283 284 284 284 284 284 285 285 285 285 285 285 285
281 281 281 281 281 281 281 281 280 280 280 279 279 279 280 280 280 280 281 281 281 281 281 281 281 281 281 281 282 282 281 281 280 280 279 279 280 280 280 280 279 279 279 279 280 280 281 281 281 281 281 281 282 282 282 282 282 282 283 283 283 283 283 283 282 282 282 283 283 283 283 283 283 283 283 283 283 284 284 284 284 284 285 285 285 285
281 280 280 280 280 280 280 280 279 279 279 279 279 280 280 280 280 281 281 281 281 281 281 281 281 280 281 281 281 282 281 281 280 280 279 279 279 280 280 279 279 279 279 279 279 279 280 280 281 281 281 281 281 282 282 282 282 282 282 282 282 283 283 282 282 282 283 283 283 283 283 283 283 282 282 283 283 283 283 283 283 284 284 284 284 284
280 280 280 280 280 280 279 279 279 279 279 279 279 280 280 280 280 280 281 281 281 280 280 280 280 280 280 280 280 281 281 280 280 280 280 279 280 280 279 279 279 279 279 279 279 279 279 279 280 279 279 279 280 280 281 281 282 282 282 282 282 282 283 282 282 283 283 283 283 283 283 282 282 282 282 282 282 282 282 282 283 283 283 284 284 284
280 280 280 280 280 279 278 278 278 279 279 279 280 280 280 280 280 280 280 280 280 280 280 280 280 280 279 279 279 280 280 280 280 280 280 280 280 279 279 279 279 279 279 279 279 279 279 279 279 279 279 280 280 280 280 280 281 281 281 281 282 282 282 282 282 282 282 282 282 282 282 282 282 282 282 282 282 282 282 282 282 283 283 284 284 284
280 280 280 279 279 278 277 278 278 279 279 280 280 280 280 280 280 280 279 279 279 279 279 279 279 279 279 279 279 280 280 280 279 279 279 279 279 279 279 279 279 279 279 279 279 279 279 279 279 279 279 280 280 280 280 280 280 281 281 281 281 282 282 282 282 282 282 282 282 282 282 282 282 282 282 282 282 282 282 282 282 283 283 283 284 284
280 280 279 279 278 278 277 278 279 279 279 279 280 280 279 280 279 279 279 279 279 279 279 279 278 278 278 278 279 279 279 279 279 279 279 279 279 279 279 279 279 279 279 279 279 279 279 279 279 279 279 280 280 280 280 280 280 280 280 281 281 282 282 282 282 282 282 282 282 282 282 282 282 282 282 282 282 282 281 282 282 282 282 282 283 283
280 279 278 278 277 278 278 278 279 279 279 279 279 279 279 279 279 279 279 278 278 278 278 278 278 278 278 278 278 278 279 279 278 278 278 278 278 278 278 278 278 278 279 279 279 279 279 279 279 279 279 280 280 280 280 280 280 280 280 280 280 281 281 282 281 281 281 281 281 281 281 281 281 281 281 281 281 281 281 281 281 281 281 282 282 282
279 278 277 277 278 278 278 279 279 279 279 279 279 279 279 278 278 278 278 278 278 278 278 278 278 278 278 278 278 278 278 278 278 278 278 278 278 278 278 278 278 278 278 279 279 279 279 279 279 279 280 280 280 280 280 280 280 280 280 280 280 280 281 281 281 281 281 281 281 281 281 281 281 281 281 281 281 281 281 281 282 282 282 282 282 282
278 277 277 277 278 278 278 278 278 278 278 278 278 278 278 278 278 278 278 278 278 278 278 278 278 278 278 278 278 278 278 278 278 278 278 278 277 277 278 278 278 278 279 279 279 279 279 279 279 279 279 280 280 280 280 279 280 280 280 280 280 280 281 281 281 281 281 281 281 281 281 281 281 281 281 281 281 281 281 281 282 282 282 281 281 282
277 277 277 277 278 278 278 278 278 278 277 277 277 277 277 277 277 277 277 277 277 278 278 278 278 278 278 278 278 278 278 278 278 277 277 277 277 278 278 278 278 278 279 279 279 279 279 279 279 279 279 279 279 279 279 279 280 280 280 280 280 281 281 281 281 281 281 281 281 281 281 281 281 281 281 281 281 281 281 281 281 281 281 281 281 281
277 277 277 277 277 278 278 278 277 277 277 277 276 276 276 276 276 276 277 277 278 278 278 278 278 278 278 278 278 278 278 278 278 278 278 278 278 278 278 278 279 279 279 279 279 279 279 279 279 279 279 279 279 279 279 279 279 280 280 280 280 280 280 281 281 281 281 281 281 280 280 281 281 281 281 281 281 281 281 281 281 281 281 281 281 281
276 276 277 277 277 278 278 278 277 277 277 276 276 276 276 276 276 277 277 277 278 278 278 278 278 278 278 279 279 279 279 278 278 278 278 278 278 278 279 279 279 279 279 279 279 279 279 279 279 279 279 279 279 279 279 279 279 280 280 280 280 280 280 281 281 281 281 280 281 281 280 281 281 281 281 281 281 281 281 281 281 281 281 281 281 281
276 276 276 277 277 277 277 277 277 277 277 277 276 276 276 276 276 276 277 277 277 278 278 278 278 278 278 278 279 279 278 278 278 278 278 278 278 278 279 279 279 279 279 279 279 279 279 279 279 279 279 279 279 279 279 279 279 280 280 280 280 280 280 281 281 281 281 281 281 281 281 281 281 281 281 281 281 281 281 281 281 281 281 281 281 281
276 276 276 276 277 277 277 277 277 277 277 277 277 276 276 276 276 276 277 277 277 277 277 278 278 278 278 278 278 278 278 279 278 278 278 279 279 279 279 279 279 279 279 279 279 279 279 279 279 279 279 279 279 279 279 280 280 280 280 280 280 280 280 281 281 281 281 281 281 281 281 281 281 281 281 281 281 281 281 281 281 281 281 281 281 281
276 276 276 276 276 277 277 277 276 276 276 276 276 276 276 276 276 276 276 276 277 277 277 277 277 278 278 279 279 279 279 279 279 279 279 279 279 279 279 279 279 279 279 279 279 279 279 279 279 279 279 279 279 279 280 280 280 280 280 280 280 280 280 280 280 280 281 281 281 281 281 281 281 281 281 281 281 281 281 281 281 281 281 281 281 281
275 276 276 276 276 276 277 277 276 276 276 276 275 276 276 276 276 276 276 276 277 277 277 277 278 278 279 279 279 279 279 279 279 279 279 279 279 279 279 279 279 279 279 279 279 279 279 279 279 279 279 280 280 280 280 280 280 280 280 280 280 280 280 280 280 280 281 281 281 281 281 281 281 281 281 281 281 281 281 281 281 281 281 281 281 281
275 276 276 276 276 276 276 276 276 276 275 275 275 275 276 276 276 276 276 277 277 277 277 277 278 278 278 278 279 279 279 279 279 279 279 279 279 279 279 279 279 279 279 279 279 279 279 279 279 279 279 279 280 280 280 280 280 280 280 280 280 280 280 280 280 281 281 281 281 281 281 281 281 281 281 281 281 282 282 282 282 282 282 282 282 281
275 275 276 276 276 276 276 276 275 275 275 275 275 275 275 276 276 276 276 277 277 277 277 277 278 278 278 278 278 278 279 279 279 279 279 279 279 279 279 279 279 279 279 279 279 279 279 279 279 279 279 279 279 280 280 280 280 280 280 280 280 280 280 280 281 281 281 281 281 281 281 281 281 281 281 281 281 281 281 282 282 282 282 282 282 282
275 275 276 276 276 276 275 275 275 275 275 275 275 275 275 276 276 276 276 276 276 277 277 277 277 278 278 278 278 278 279 279 279 279 279 279 279 279 279 279 279 279 279 279 279 279 279 279 279 279 279 279 279 280 280 280 280 280 280 280 280 280 280 280 281 281 281 281 281 281 281 281 281 281 281 281 281 281 281 282 282 282 282 282 282 282
274 275 275 275 276 275 275 275 275 275 275 275 275 275 275 275 276 276 276 276 276 276 277 277 277 278 278 278 278 279 279 279 279 279 279 279 279 279 279 279 280 280 280 280 280 280 280 280 280 280 280 280 280 280 280 280 280 280 280 280 280 280 280 280 281 281 281 281 281 281 281 281 281 281 281 281 281 281 281 281 282 282 282 282 282 282
274 274 275 275 275 275 275 275 275 275 275 275 275 275 275 275 275 276 276 276 276 276 276 277 277 277 278 278 279 279 279 279 279 279 280 280 279 279 279 279 280 280 280 280 280 280 280 280 280 281 280 280 280 280 280 280 281 281 281 281 281 281 281 281 281 281 281 281 281 281 281 281 281 281 281 281 281 281 281 281 282 282 282 282 282 282
Wind_Speed
1 2 2 2 1 1 3 3 3 3 4 4 5 5 5 6 6 7 7 7 7 7 8 8 8 9 9 10 10 9 9 9 9 8 7 7 6 5 5 5 5 5 5 5 4 4 5 5 6 7 7 8 8 9 9 10 10 10 11 11 11 11 11 11 11 11 11 11 11 11 11 10 10 9 8 8 8 7 7 7 8 8 8 9 9 9
1 1 1 1 1 1 2 3 4 5 5 6 7 7 8 8 9 9 10 10 9 9 9 10 10 10 10 10 9 7 6 5 4 4 4 4 4 4 4 4 4 4 4 4 4 5 5 6 6 7 8 8 9 9 10 10 11 11 11 12 12 12 11 11 11 11 11 11 10 10 9 9 8 8 7 7 7 7 8 8 8 8 9 9 9 10
1 1 1 1 1 1 2 3 4 5 6 7 7 8 8 8 8 8 8 7 6 6 5 5 4 4 4 4 3 2 1 2 3 3 4 4 4 3 3 3 2 3 3 4 4 5 6 6 7 8 8 9 9 9 10 10 11 11 11 11 11 11 11 11 10 10 10 10 9 8 8 7 8 8 8 8 8 8 8 8 9 9 9 9 10 10
2 2 1 1 1 2 2 2 3 3 4 5 5 5 5 4 4 3 3 3 3 3 3 3 3 3 2 2 1 2 2 2 3 3 3 3 3 2 2 2 2 3 4 4 5 6 7 8 8 8 9 9 9 9 9 9 9 9 9 9 9 10 10 9 8 7 8 7 6 6 6 6 7 7 8 8 8 9 9 9 9 9 9 9 10 10
3 3 2 2 2 2 2 1 1 0 1 1 2 2 3 3 4 4 5 5 6 6 6 5 5 4 4 3 3 2 2 2 3 3 3 3 2 2 2 3 3 4 5 5 6 7 8 8 9 9 9 9 9 8 8 8 8 7 7 7 8 8 9 7 5 5 5 5 6 6 6 7 7 7 8 8 9 9 9 9 9 9 9 9 9 9
4 4 4 3 3 3 3 3 3 3 4 4 5 6 6 6 7 7 7 6 6 6 5 4 4 3 3 2 2 2 1 1 2 2 2 2 1 1 2 3 3 4 6 7 8 8 9 9 9 9 9 9 9 9 8 8 7 7 6 6 6 7 6 5 5 5 6 6 7 7 8 8 8 8 9 9 9 9 9 9 9 9 9 9 9 9
4 5 4 4 4 5 5 6 6 6 7 7 7 7 7 7 7 6 6 5 4 4 3 3 2 2 2 2 2 2 2 1 1 1 1 2 2 2 3 4 5 6 8 9 10 10 10 10 10 10 10 10 10 10 9 9 8 8 8 7 7 7 7 6 6 7 7 8 8 8 9 9 9 9 10 10 10 10 10 9 9 9 9 9 9 9
5 5 6 6 6 6 7 7 7 7 7 7 7 6 6 5 5 4 4 3 3 3 2 2 2 2 2 2 2 3 3 3 3 3 4 4 5 6 7 8 9 10 11 12 12 13 12 12 11 11 11 11 11 11 11 10 10 10 10 10 9 9 8 8 8 8 8 9 9 9 10 10 10 10 10 10 10 10 10 9 9 9 9 9 9 9
7 7 7 7 7 7 7 7 7 6 6 6 5 5 4 4 3 3 3 3 3 3 2 2 2 2 3 3 3 4 4 4 5 5 6 6 7 8 9 10 11 12 13 14 14 15 15 14 14 13 13 12 12 12 12 11 11 11 11 11 11 10 10 10 10 10 10 10 11 11 11 11 11 11 10 10 10 10 9 9 9 9 9 9 9 9
8 7 7 7 6 6 6 6 5 5 5 5 4 4 4 4 4 4 4 4 3 3 3 3 3 3 3 3 3 4 5 5 6 7 7 8 9 10 11 12 13 14 14 15 16 16 16 16 16 15 14 13 12 12 12 12 12 12 12 12 11 11 11 11 11 12 12 12 13 12 12 11 11 10 10 10 9 9 9 9 9 9 9 9 9 9
7 7 6 6 6 5 5 5 5 5 4 4 4 4 4 4 5 5 5 4 4 4 4 3 4 3 3 4 4 5 6 6 7 8 9 10 11 12 12 13 14 14 15 16 17 17 17 16 16 15 14 13 12 12 12 13 13 13 13 13 13 13 13 14 14 14 14 14 13 12 11 10 10 10 9 9 9 9 9 9 9 9 9 9 9 9
6 6 6 5 5 5 5 5 4 4 4 4 4 4 4 4 5 5 4 4 4 4 3 4 4 4 4 5 5 6 7 8 9 10 11 11 12 13 13 14 15 16 17 18 18 18 17 16 15 14 14 14 13 13 13 14 14 14 14 14 14 15 15 15 15 14 13 12 11 10 10 9 9 9 9 9 9 9 9 9 9 9 9 9 9 10
6 5 5 5 5 5 5 5 5 5 5 5 5 5 5 5 5 5 4 4 4 4 4 4 4 5 5 6 7 8 9 9 10 11 11 12 13 13 14 16 17 18 19 19 18 17 15 14 13 13 14 14 14 14 14 14 14 14 14 14 14 14 14 13 12 12 11 10 10 9 9 9 9 9 9 9 9 9 9 9 9 9 9 10 10 10
6 6 6 6 6 6 6 5 6 6 6 6 5 5 5 5 5 4 4 4 4 5 5 5 5 6 7 7 8 9 9 10 11 12 12 13 13 14 16 18 20 20 19 18 16 14 12 11 11 12 13 13 13 13 13 13 13 13 13 12 12 12 11 10 10 10 9 9 9 9 9 9 9 9 9 9 9 9 10 10 10 10 10 10 11 11
6 6 6 6 6 6 6 5 5 6 5 5 5 5 5 4 4 4 5 5 6 7 7 8 8 8 8 8 8 8 9 11 12 13 15 16 17 17 18 19 20 19 16 14 12 10 9 9 10 11 12 12 12 12 12 12 12 11 11 10 10 9 9 9 9 9 9 9 10 9 9 9 9 9 10 10 10 10 10 10 10 10 11 11 11 11
6 6 6 5 5 5 5 5 5 5 5 5 5 5 5 4 5 5 6 7 8 9 9 9 9 9 8 8 8 9 10 12 14 16 17 18 19 20 19 18 17 15 12 10 8 7 7 8 9 10 10 11 11 11 11 10 10 9 9 9 9 9 9 9 10 10 10 10 10 10 10 10 10 10 10 10 10 10 10 11 11 11 11 11 11 12
4 5 5 5 5 4 4 4 4 4 4 4 5 5 5 5 6 7 7 8 9 9 8 8 7 6 7 8 9 9 11 14 16 17 17 16 18 19 17 15 13 11 9 7 6 6 6 7 8 9 9 10 10 11 11 11 10 10 10 10 10 10 10 10 10 10 10 10 10 10 10 10 10 10 10 10 10 11 11 11 11 11 11 12 12 12
4 4 4 4 4 4 4 4 4 4 4 4 5 6 6 7 7 8 8 8 8 8 8 8 7 6 6 7 8 10 13 15 17 17 16 15 15 16 14 12 10 9 7 6 5 6 6 7 8 9 9 10 11 11 12 12 12 12 12 11 11 11 11 11 11 11 11 11 11 11 10 10 10 10 10 10 10 11 11 11 11 11 12 12 12 12
3 3 3 4 4 4 3 3 3 4 4 5 6 6 7 7 8 8 8 8 8 8 8 8 8 8 8 8 10 13 14 16 17 16 14 14 15 15 12 10 9 8 8 7 7 7 8 9 9 10 10 11 12 12 13 14 14 14 14 13 13 12 12 11 11 11 11 11 11 11 11 11 11 10 10 10 10 11 11 11 11 12 12 12 13 13
2 2 3 3 4 3 3 3 4 5 5 6 7 8 8 8 8 8 8 8 8 9 9 8 8 9 9 10 12 13 15 16 16 15 13 13 14 14 11 10 10 10 10 9 10 10 11 11 11 11 11 12 12 13 13 14 14 15 15 14 14 13 13 12 12 11 11 11 11 11 11 10 10 10 10 10 10 11 11 11 12 12 12 13 13 13
2 2 2 2 3 3 3 3 4 5 6 7 8 8 8 8 8 8 8 9 9 9 10 9 9 9 10 11 12 13 15 15 14 13 12 13 14 13 11 11 11 12 13 12 12 12 13 13 12 12 12 12 13 13 13 14 14 15 15 14 14 14 13 13 12 11 11 10 10 10 10 10 10 10 10 10 11 11 11 12 12 13 13 13 13 14
1 2 1 1 1 2 2 3 4 5 6 7 8 8 8 8 8 9 9 9 9 10 10 10 10 11 12 13 13 13 13 12 12 12 12 11 11 12 11 12 13 14 15 15 15 14 14 13 13 12 12 12 12 13 13 13 14 14 14 14 14 13 12 12 11 10 10 9 9 9 9 10 10 10 10 11 11 12 12 12 13 13 13 14 14 14
1 1 1 0 0 1 2 3 4 6 6 7 8 8 8 9 9 9 9 10 10 10 10 10 11 12 12 12 12 12 11 11 11 11 10 7 9 11 12 13 14 15 16 17 17 16 15 14 13 12 11 11 12 12 12 12 12 12 11 11 11 10 9 8 8 8 8 8 8 9 9 10 10 11 11 11 12 12 13 13 13 13 14 14 14 14
1 1 1 1 2 3 3 4 5 6 8 8 9 10 10 10 11 11 11 11 11 11 12 12 12 12 12 11 10 9 10 9 10 10 8 6 8 11 13 14 15 15 15 17 18 19 17 15 12 10 9 10 10 10 10 9 8 7 6 6 6 6 6 6 6 7 7 8 8 9 10 10 11 11 12 12 12 13 13 13 13 13 14 14 14 14
1 1 2 2 3 4 5 6 6 8 9 10 11 11 12 12 12 13 13 13 12 12 12 11 10 10 10 9 8 8 9 9 9 9 8 7 9 11 13 13 14 14 15 17 19 19 18 15 10 7 7 7 8 8 7 5 3 2 3 3 4 4 5 6 7 7 8 9 9 10 11 11 12 12 12 12 12 12 13 13 13 13 13 14 14 15
1 1 2 3 3 4 5 6 7 8 9 9 10 11 12 12 12 13 12 12 12 11 10 9 9 9 9 8 7 7 8 9 10 9 9 8 9 10 12 13 14 16 16 18 19 18 16 13 8 5 4 4 5 5 5 4 4 4 4 5 6 6 7 8 8 9 9 10 10 11 12 12 13 13 13 12 12 12 12 12 13 13 13 14 15 15
2 2 3 4 5 6 7 8 9 10 10 10 9 9 10 11 11 11 10 10 10 9 8 8 8 8 7 6 6 6 7 9 10 9 9 8 8 8 10 12 14 16 17 17 17 17 14 10 5 2 2 2 3 4 4 5 5 5 6 7 8 9 9 10 10 10 11 11 12 12 13 13 13 12 12 12 12 12 12 12 13 13 14 14 15 15
5 6 6 7 8 9 9 10 11 12 12 10 8 7 8 10 10 9 8 9 8 8 7 7 7 7 7 7 7 7 8 9 9 8 7 7 7 7 10 12 14 15 15 15 16 16 13 7 2 2 2 3 3 3 3 4 5 6 7 8 9 10 10 11 11 12 12 13 13 13 13 12 12 12 12 12 12 12 12 13 13 13 14 14 15 15
6 7 8 8 9 11 11 12 13 13 13 11 8 7 8 9 10 9 9 9 8 8 7 8 8 7 8 8 9 9 9 8 7 6 6 7 6 7 10 11 13 13 13 13 14 13 12 5 1 2 2 3 3 2 2 4 5 7 8 9 10 11 12 13 13 14 14 14 13 13 12 12 12 11 12 12 12 12 12 13 13 13 14 14 14 14
7 8 9 10 11 12 13 14 15 14 13 11 9 7 7 8 9 9 9 9 9 8 8 8 8 8 8 8 8 7 6 5 4 5 7 7 6 7 9 10 11 12 12 11 9 8 9 5 1 1 2 2 2 3 5 7 8 9 10 10 11 12 12 13 13 13 13 13 13 13 13 12 12 12 12 12 12 12 12 12 12 12 13 14 14 14
8 9 10 12 13 14 15 16 15 14 12 10 7 6 6 6 7 7 8 8 8 8 8 8 8 7 6 6 4 3 3 3 4 6 8 8 7 7 8 8 9 10 10 8 6 5 5 4 2 2 4 6 9 10 11 11 11 10 9 9 9 10 10 10 10 11 12 12 13 13 13 13 13 12 12 12 12 12 11 11 11 12 12 13 13 13
10 11 13 14 15 16 16 16 15 12 10 7 6 5 5 5 6 6 6 6 6 6 6 6 6 6 6 5 5 4 5 6 7 9 10 8 7 8 8 8 8 8 8 7 5 3 2 3 6 9 12 14 16 16 14 12 10 9 8 7 7 7 7 8 9 10 11 12 12 12 12 12 12 12 11 11 11 11 11 11 11 11 11 12 13 13
12 13 15 16 17 17 16 14 11 9 7 5 5 5 5 5 5 5 5 5 5 5 5 5 5 5 6 6 7 7 7 7 8 8 9 8 7 8 8 8 8 8 8 7 6 5 5 7 9 12 14 15 15 15 14 13 11 10 9 9 9 9 9 9 10 10 11 11 11 11 10 10 10 10 10 11 11 11 11 11 11 11 11 11 12 13
14 15 16 17 17 16 14 10 7 5 4 4 4 5 5 5 5 5 5 6 6 6 6 6 7 7 7 7 8 8 8 8 7 7 7 7 8 8 9 9 9 8 8 7 7 7 8 9 10 11 12 13 12 12 13 13 13 12 11 11 12 12 11 10 10 10 10 10 9 9 9 9 9 9 10 10 11 11 11 11 10 10 11 11 13 14
15 16 16 17 16 13 10 6 4 4 5 5 5 5 5 5 5 5 6 7 7 8 8 8 9 9 9 9 9 9 9 9 9 9 8 8 9 9 10 9 8 8 7 7 7 7 8 9 10 11 11 12 12 11 11 12 14 14 14 14 14 14 12 11 10 10 9 9 9 9 9 9 9 9 10 10 10 10 10 10 11 11 11 12 13 14
16 16 16 15 13 9 5 3 3 5 5 6 6 6 6 6 6 7 7 8 9 9 10 10 11 11 12 12 12 12 11 12 12 11 10 9 9 10 9 9 8 8 7 8 8 8 8 9 10 11 11 11 11 10 11 12 14 15 16 16 16 15 13 11 10 10 10 11 11 11 10 10 10 10 10 10 10 10 10 11 11 12 12 13 14 14
16 16 15 12 9 5 2 2 4 5 6 6 6 7 7 7 7 8 9 9 10 11 11 12 13 13 14 15 15 15 15 15 14 13 11 11 11 10 10 10 9 9 8 8 8 8 9 10 11 11 11 10 10 10 10 11 12 13 13 15 16 15 14 13 11 11 12 12 13 12 12 11 11 11 11 10 10 11 11 11 11 12 12 13 14 15
15 14 12 9 5 2 2 3 4 5 6 7 7 7 8 9 9 10 11 11 12 12 13 13 14 14 15 15 16 16 16 15 14 13 12 12 12 12 12 12 11 10 10 10 9 10 10 10 10 10 10 10 10 11 11 12 12 12 13 14 14 14 14 14 13 13 13 13 13 13 12 12 12 12 12 12 12 12 12 12 11 11 12 13 14 14
14 11 9 6 3 2 3 4 4 5 6 7 8 8 8 9 9 10 10 11 11 12 12 13 13 13 13 13 13 13 13 13 13 13 13 12 12 13 13 13 12 12 12 11 11 11 11 11 10 10 10 11 12 12 12 12 12 12 13 14 14 13 13 13 14 14 14 14 14 13 13 13 13 13 13 13 13 13 14 13 13 13 13 14 15 15
12 10 7 5 3 3 4 4 4 5 6 7 7 7 7 7 8 9 9 10 10 11 10 10 10 10 10 10 10 11 12 13 13 13 13 13 13 13 14 14 13 13 12 12 12 12 12 12 12 12 12 12 12 13 13 12 12 13 13 13 13 12 11 12 13 14 14 14 13 13 13 14 14 15 15 15 14 14 15 15 15 15 15 15 16 16
10 9 7 5 4 4 4 5 5 5 6 6 6 6 7 7 9 10 11 11 10 9 8 8 8 8 9 9 9 10 11 12 12 12 12 11 11 12 12 13 13 13 13 13 13 13 13 13 13 13 13 13 14 14 14 14 13 13 13 13 13 14 14 14 13 13 13 13 13 13 14 15 16 16 15 15 15 15 15 16 17 17 17 17 16 15
9 8 7 5 4 5 5 5 5 5 6 7 7 7 7 8 10 12 13 12 11 8 6 6 6 7 9 9 9 9 8 8 7 7 7 7 7 8 9 10 11 12 12 12 13 13 13 13 13 13 14 13 14 14 14 14 14 14 13 13 14 15 16 14 12 12 12 13 14 15 15 15 15 15 15 15 16 16 16 17 17 17 16 15 14 14
9 9 7 6 5 5 5 6 6 6 7 7 7 7 8 9 10 12 12 12 11 9 6 6 6 8 10 10 10 8 6 5 4 4 4 4 5 6 8 9 10 11 12 12 12 12 13 13 14 14 14 14 14 14 15 15 15 15 14 14 14 13 12 12 12 12 12 13 13 13 14 14 14 15 16 16 16 17 17 17 17 17 16 15 15 15
10 10 8 6 5 6 6 6 6 7 7 8 8 8 9 10 11 11 11 11 10 9 7 6 7 8 8 7 7 6 6 5 5 5 5 5 6 6 7 8 9 10 11 12 12 12 12 13 13 13 13 13 14 15 15 16 16 16 15 14 14 13 13 14 14 14 13 13 13 13 13 14 15 16 16 16 16 16 17 17 17 17 17 16 16 17
12 10 9 7 6 6 6 6 6 7 8 9 9 10 10 10 10 10 10 9 8 7 7 6 6 6 6 6 6 6 6 6 6 6 6 6 6 6 7 8 8 9 10 11 13 13 13 13 13 13 13 13 14 15 15 16 16 16 16 15 14 15 16 16 16 15 15 15 14 14 14 15 15 16 16 16 16 16 16 16 17 17 17 17 17 17
12 10 8 7 6 6 5 5 6 7 8 8 9 10 10 10 10 9 8 7 6 6 6 6 5 5 5 6 6 7 7 6 7 7 7 7 6 6 7 8 9 10 11 12 13 14 14 14 14 13 13 14 14 15 16 16 16 16 16 15 15 15 16 16 15 15 15 15 15 15 14 15 15 15 15 16 16 16 16 16 16 16 16 17 17 17
11 9 7 6 6 6 5 5 6 6 7 8 10 11 11 10 9 7 6 5 5 5 5 5 5 5 6 6 7 7 7 7 7 7 7 7 7 8 8 8 9 10 11 12 13 14 15 16 16 16 15 14 15 15 16 15 15 15 16 15 15 15 15 15 15 15 14 15 15 15 15 16 16 16 16 16 17 18 17 17 16 16 16 16 16 17
9 8 7 6 6 6 6 6 7 8 9 10 11 11 10 8 6 5 4 5 5 5 5 5 5 6 6 7 7 7 7 8 8 8 8 8 8 9 9 9 9 10 11 12 14 15 16 17 17 17 17 16 16 16 16 16 15 15 15 15 15 15 15 16 16 15 15 15 16 17 18 17 16 16 17 18 18 19 18 17 17 16 16 16 16 16
8 8 7 6 6 6 6 7 8 8 9 9 9 9 8 5 3 3 4 5 5 5 5 5 5 6 6 6 7 7 8 8 8 8 8 9 9 9 9 10 10 10 11 12 13 14 15 16 17 17 18 18 18 17 17 16 16 15 15 15 15 15 16 16 16 16 16 16 18 19 19 18 18 17 17 17 19 20 20 19 18 17 16 15 15 16
9 8 8 7 7 6 6 6 6 7 7 7 6 6 5 4 3 3 4 5 5 5 5 6 6 6 6 7 7 7 8 8 8 8 9 9 9 9 9 9 9 9 10 11 11 11 12 12 14 14 15 17 18 18 18 17 16 15 15 15 15 15 16 16 17 17 17 17 18 18 19 19 18 18 17 17 18 19 20 20 19 17 16 15 15 15
9 10 10 9 8 7 6 6 6 6 7 6 6 6 5 5 4 4 4 5 5 6 6 6 6 7 7 8 8 8 8 8 8 9 9 9 9 9 9 9 9 9 9 9 9 9 9 9 10 10 12 13 14 15 17 16 16 15 15 15 15 15 16 17 17 17 17 17 17 17 18 18 17 16 15 15 17 18 19 20 19 18 16 15 14 15
Wind_Direction
4 28 50 68 84 231 258 262 268 269 268 275 275 275 274 272 272 272 272 271 270 268 268 270 270 272 275 282 288 293 297 299 301 303 305 311 320 331 340 348 355 358 356 350 341 331 321 314 310 307 304 301 299 297 295 292 289 287 286 283 282 280 279 278 277 276 275 274 274 275 276 277 282 289 294 298 300 301 299 298 296 293 291 290 289 289
69 79 81 81 82 259 261 261 264 269 273 273 273 273 273 276 278 280 282 283 284 284 284 283 282 282 283 284 288 295 304 314 327 341 355 8 16 19 17 14 10 3 355 345 335 327 322 317 312 309 305 302 299 296 294 291 288 286 284 282 281 282 282 280 276 274 274 272 272 273 275 279 283 286 290 294 297 298 297 295 294 291 288 286 285 285
137 136 147 132 156 213 243 255 258 260 267 271 273 275 278 282 285 288 293 299 302 302 301 299 296 293 289 283 277 274 321 25 35 36 32 26 19 14 11 7 1 352 348 343 336 330 325 322 319 315 311 307 304 301 298 294 291 287 284 283 282 281 278 274 271 268 267 269 273 277 280 282 283 285 289 292 294 296 297 296 295 291 284 280 279 279
136 130 145 145 159 182 205 234 248 257 262 272 280 287 296 303 309 320 342 18 41 55 62 70 77 81 86 94 121 134 119 85 59 38 26 19 16 15 18 17 9 359 350 341 333 329 326 324 320 317 314 310 307 305 303 300 297 291 285 281 279 274 264 264 270 270 265 272 279 284 286 285 285 286 290 291 293 296 297 297 297 294 287 281 277 274
121 113 112 111 119 138 162 176 189 215 290 338 5 19 34 50 64 73 77 80 84 87 89 90 91 93 93 94 96 104 110 93 68 43 35 36 42 43 34 19 2 348 340 333 328 323 320 318 315 313 310 307 304 301 301 304 305 302 292 283 277 270 263 266 274 280 278 280 282 283 285 285 285 287 289 289 291 293 293 293 292 290 288 286 284 280
112 106 104 102 102 106 107 104 100 93 85 79 75 74 76 79 83 85 87 87 87 87 86 85 83 81 80 78 70 62 63 83 84 73 61 65 62 39 14 353 335 325 323 318 315 312 310 310 308 306 303 300 296 293 293 297 301 303 301 293 284 276 270 272 275 274 274 276 277 280 282 283 285 287 288 288 288 288 289 288 287 285 283 282 282 282
110 106 102 97 97 97 95 95 94 92 91 87 85 84 84 83 83 82 79 77 74 71 67 59 50 41 34 26 14 3 350 343 332 285 256 253 261 280 298 306 307 308 309 308 307 307 305 304 301 298 295 292 290 288 285 283 283 284 286 285 282 277 274 274 273 272 274 275 278 281 283 285 286 285 286 286 285 285 285 285 284 282 280 278 277 276
114 106 101 95 94 94 93 91 90 89 90 89 87 86 84 78 73 66 58 51 46 41 35 22 9 357 349 343 335 327 321 316 310 300 288 281 279 281 287 294 298 301 304 305 305 305 303 299 295 291 287 284 283 281 278 276 274 273 273 271 270 270 270 271 272 274 277 279 282 284 285 285 285 284 283 283 282 281 280 279 279 277 276 275 275 274
114 108 102 97 94 90 87 87 86 84 82 82 82 79 74 65 53 40 28 24 20 17 13 3 352 341 334 327 322 317 312 309 306 302 298 294 292 291 292 296 298 300 302 303 303 303 302 298 293 288 283 279 277 275 273 272 271 269 268 266 266 266 268 270 271 275 278 280 283 285 285 284 284 283 282 280 279 277 276 274 274 273 273 273 273 272
110 106 101 97 94 90 84 80 77 75 70 67 66 64 58 50 41 33 24 19 16 14 9 3 356 342 330 323 316 311 307 304 301 299 297 295 296 296 297 299 300 300 300 301 302 302 301 298 293 287 282 278 274 272 270 268 266 265 264 264 264 266 268 269 272 275 278 282 284 285 285 284 282 281 279 278 276 274 273 271 270 270 270 270 270 269
109 105 99 93 90 87 81 75 69 63 58 53 52 51 49 43 38 33 28 19 15 13 8 1 353 343 328 316 309 307 304 299 296 295 294 294 295 295 296 297 297 298 299 301 302 302 300 295 290 284 279 275 271 268 265 262 260 260 261 262 264 266 269 271 274 277 280 282 284 285 284 282 280 279 277 276 274 273 272 272 271 270 270 269 269 269
107 103 96 91 86 82 78 73 67 62 57 55 54 52 48 42 35 31 28 18 11 8 1 352 343 334 324 311 305 303 300 295 292 292 292 292 292 293 295 295 295 297 299 301 303 302 298 292 285 279 275 272 268 266 263 262 261 261 263 265 266 269 272 274 277 280 282 284 284 283 281 279 278 277 276 275 274 274 274 275 274 273 272 271 272 274
104 100 97 93 88 83 78 73 69 65 62 59 57 53 44 38 33 28 25 17 9 2 355 346 334 323 315 310 305 302 299 295 292 291 290 290 291 293 296 297 298 300 302 304 304 302 296 288 280 274 271 271 271 271 270 270 270 270 270 271 273 275 277 279 281 282 283 283 282 280 278 277 276 276 276 276 276 277 278 278 278 276 275 275 275 276
104 102 100 93 87 82 76 72 69 65 60 55 52 47 40 34 31 28 24 15 3 354 346 342 334 321 311 307 305 303 301 299 296 294 292 291 292 296 299 301 302 304 306 307 305 301 292 283 274 270 269 270 272 274 276 277 277 278 278 279 279 280 280 281 281 280 279 278 278 278 277 277 277 277 277 277 276 277 278 278 278 277 277 277 277 277
104 104 99 93 87 82 75 71 69 67 61 54 48 42 36 33 28 23 17 8 356 346 339 335 329 321 311 307 307 307 306 305 304 303 301 298 298 300 304 306 307 308 309 309 305 296 286 276 270 267 268 269 271 273 275 278 279 281 282 281 281 279 278 276 276 275 274 275 275 275 275 276 276 276 276 276 276 275 276 276 276 276 277 277 277 277
101 102 101 99 93 85 75 67 66 66 61 53 47 43 39 28 15 4 358 353 346 342 340 337 332 323 313 309 310 312 311 310 311 312 312 309 306 307 311 313 314 315 315 312 303 292 280 271 267 266 267 268 268 269 269 272 275 278 279 278 276 276 275 272 270 270 270 270 271 271 272 273 273 274 274 274 274 274 274 275 275 276 276 277 277 277
97 97 101 101 99 90 74 64 60 58 53 46 38 28 16 5 356 350 346 343 341 339 337 335 330 321 312 310 311 313 314 314 315 316 316 313 312 315 320 321 321 323 323 318 306 292 280 273 269 268 268 267 266 264 263 264 266 268 270 272 273 272 272 272 271 269 267 266 267 268 269 270 271 272 272 272 272 273 273 274 275 275 276 276 277 277
96 97 101 104 102 94 78 68 59 49 39 30 20 8 358 351 346 342 339 337 335 334 330 327 321 313 309 308 311 314 314 315 317 318 316 313 314 319 327 328 327 327 327 323 313 299 288 281 277 275 272 269 266 264 262 262 263 263 263 266 267 267 266 267 269 270 270 269 268 267 268 269 269 270 271 272 272 273 274 275 275 276 276 277 277 277
104 104 106 107 103 94 80 65 50 35 22 9 0 353 347 342 339 336 333 331 330 328 325 321 316 310 306 303 306 311 315 316 318 318 316 312 314 322 334 334 330 326 324 321 314 305 297 290 285 281 278 274 270 267 265 263 264 264 263 264 264 264 264 264 266 268 269 270 270 270 270 270 270 270 271 272 273 274 275 276 276 277 277 277 277 277
121 120 113 109 102 92 74 47 25 11 359 348 341 336 334 332 330 330 328 326 324 322 319 316 311 307 304 302 305 310 316 318 319 318 314 310 314 324 335 333 327 321 318 316 311 305 300 296 291 287 282 277 273 269 266 264 264 264 265 266 266 266 266 266 266 267 267 269 271 271 270 270 271 271 273 274 274 275 275 276 277 277 277 277 277 276
140 135 131 122 106 83 57 26 4 352 342 334 329 325 324 323 323 322 321 319 317 314 311 307 303 301 301 302 305 310 316 318 319 317 314 311 314 322 331 329 324 319 316 313 310 307 305 301 298 293 287 280 274 269 266 264 264 264 265 266 267 267 268 267 267 267 268 270 271 271 270 270 271 272 273 274 275 276 277 278 278 278 277 277 276 275
160 153 157 153 114 64 31 4 349 338 329 324 320 317 316 315 314 312 311 310 308 305 302 298 296 297 298 300 303 308 313 315 316 317 315 309 308 315 327 326 322 319 316 315 314 313 311 310 306 299 290 281 274 269 266 264 264 264 265 265 266 267 268 268 269 269 269 270 271 270 270 270 270 271 273 275 276 277 278 279 279 278 277 276 275 274
196 185 189 189 20 357 348 340 333 324 316 312 310 308 306 306 303 301 301 301 298 296 294 294 295 296 296 298 301 305 309 311 313 315 315 305 303 311 321 324 322 320 317 317 318 320 320 319 314 305 292 280 272 267 264 263 263 264 265 266 267 269 270 271 270 270 269 269 269 268 267 268 269 270 273 275 277 278 279 280 279 278 277 276 274 273
227 231 262 312 334 340 337 333 326 317 308 302 299 296 295 294 294 294 294 295 294 294 296 297 297 296 296 297 300 303 306 309 313 314 312 301 300 308 316 322 323 321 318 318 321 325 327 326 322 310 292 278 270 264 261 261 264 268 271 274 276 276 273 270 267 264 263 263 263 264 266 269 270 272 273 276 278 280 280 280 279 277 276 275 274 273
264 272 304 326 334 338 336 332 324 314 305 301 296 291 288 287 286 286 286 287 290 293 295 296 295 294 294 296 298 300 303 309 313 312 307 299 298 304 314 322 325 324 320 320 324 329 331 332 328 313 289 274 266 260 252 245 243 253 259 258 258 257 256 252 253 255 257 260 262 264 267 271 273 274 276 278 280 281 280 280 278 277 276 275 274 274
329 326 328 329 329 325 322 319 313 307 303 301 297 293 290 288 286 284 283 283 284 287 289 289 288 289 292 295 296 298 303 309 311 308 301 297 298 305 314 323 327 326 323 322 325 330 332 332 329 313 277 263 258 246 229 213 209 218 226 231 234 238 242 245 248 252 256 262 266 269 271 273 274 276 277 279 281 282 281 280 278 278 278 277 277 275
280 282 288 293 296 299 303 306 310 311 311 304 297 293 291 287 284 281 279 278 278 279 279 281 285 289 293 295 295 299 304 307 306 302 298 298 298 304 315 324 328 328 325 322 324 329 331 329 322 295 240 229 226 220 214 213 220 229 234 238 240 242 245 248 252 257 262 266 270 273 275 277 278 279 279 281 282 283 282 281 280 279 280 280 279 277
269 277 283 290 295 300 306 313 319 323 322 316 306 292 282 278 275 273 270 274 276 276 273 275 280 287 292 294 296 300 304 301 297 294 296 305 303 303 314 324 330 330 327 323 324 329 334 330 302 231 209 199 200 207 218 234 245 249 250 250 251 251 254 257 261 266 270 273 275 277 278 279 280 281 281 282 282 283 283 282 282 282 282 281 279 278
280 287 294 298 302 305 309 314 319 323 324 321 310 287 269 266 267 270 273 280 281 277 270 270 273 280 287 292 298 302 302 295 286 287 302 315 309 304 315 324 330 333 332 327 325 329 338 339 289 217 211 200 206 230 260 287 285 276 269 264 263 263 265 267 270 272 274 275 276 277 277 279 280 280 280 280 280 281 282 282 283 284 283 281 278 277
286 292 295 298 301 305 309 313 317 320 321 318 308 290 274 267 267 271 276 280 279 274 270 270 272 277 284 293 300 303 302 292 282 296 318 321 313 309 319 324 329 334 338 336 330 327 331 332 310 214 221 225 251 286 300 307 304 296 286 277 273 272 271 272 272 273 273 273 273 273 274 275 276 277 277 277 278 279 281 283 283 283 282 280 278 276
290 295 297 300 303 306 310 313 316 317 317 314 305 291 280 273 271 272 274 274 272 270 269 271 275 277 281 290 296 299 296 299 301 309 320 320 312 309 318 321 324 329 337 342 338 327 321 320 315 295 289 295 297 301 305 310 310 305 296 287 280 275 274 273 273 273 273 273 272 272 272 272 272 273 273 274 275 276 278 279 280 281 280 279 278 276
295 298 301 304 307 309 311 313 314 314 312 307 296 281 272 268 266 266 266 266 266 266 267 270 275 277 276 274 272 273 281 293 300 307 314 313 306 304 311 313 314 318 325 330 323 305 303 302 305 306 305 306 307 309 313 319 323 320 312 303 295 288 286 285 284 283 281 279 277 275 273 272 270 269 269 270 270 272 273 274 275 276 278 279 278 277
296 300 303 306 310 312 313 312 311 308 302 291 277 267 262 259 259 259 261 262 265 268 272 274 278 280 280 274 270 270 275 282 290 298 306 306 302 300 304 306 307 308 310 309 298 280 274 281 293 302 305 307 309 313 318 324 327 327 323 317 312 308 307 304 301 296 293 289 286 282 278 274 271 269 267 267 267 268 269 269 269 271 276 279 279 279
298 301 305 309 312 314 314 310 302 289 275 263 255 252 251 252 256 261 264 267 269 272 275 278 282 285 287 285 280 276 274 274 278 285 292 296 295 295 299 298 298 300 301 299 293 284 276 278 287 297 302 305 305 306 311 317 322 323 321 319 317 316 318 317 313 309 304 299 296 292 287 282 277 274 272 271 271 270 270 269 269 270 274 276 277 279
300 304 308 311 314 315 313 302 271 246 241 241 241 242 244 249 257 264 269 270 270 270 271 274 276 279 282 283 281 278 275 274 277 280 284 287 289 291 293 291 290 291 292 290 288 287 285 284 287 293 300 303 302 301 304 312 317 318 318 318 319 320 322 323 321 318 313 309 305 302 299 294 290 286 283 281 280 279 277 276 275 274 272 271 271 273
302 306 310 314 316 316 307 268 222 219 227 234 239 242 245 249 255 260 265 267 268 269 270 271 272 274 276 275 274 274 275 279 283 285 284 281 281 283 285 283 283 283 282 282 282 285 288 289 291 293 296 298 300 301 304 310 315 316 317 318 320 323 325 326 326 323 319 315 312 310 308 304 300 297 294 292 290 288 285 282 279 275 271 267 266 267
305 309 312 315 316 310 274 219 209 214 224 236 243 246 248 251 254 257 259 262 265 267 269 271 272 273 274 275 275 276 278 283 286 285 281 278 276 276 275 276 277 276 273 275 279 283 287 291 293 295 293 292 294 299 305 311 313 314 313 315 318 321 324 326 326 323 319 315 312 311 311 310 308 305 302 301 298 295 290 284 279 276 272 268 265 264
306 310 312 314 309 275 212 203 210 220 231 241 248 250 253 255 256 258 260 264 268 272 274 275 274 274 274 274 275 277 280 283 284 284 281 278 275 272 271 273 273 272 269 270 274 279 284 287 292 294 294 292 291 295 301 307 310 310 309 311 313 314 316 319 320 319 316 312 311 311 311 310 309 307 306 305 303 300 296 292 288 284 281 278 273 268
305 307 309 307 288 231 207 206 218 233 246 252 255 259 263 268 272 274 276 279 282 283 283 281 279 276 275 274 274 276 279 281 282 282 280 278 275 272 270 270 271 271 270 271 272 274 276 278 282 286 291 294 295 297 300 303 305 306 309 310 310 308 309 312 314 313 312 311 310 309 309 308 307 306 306 306 305 303 301 300 299 298 297 295 289 283
302 303 303 295 268 233 220 223 236 252 264 269 273 277 282 287 291 294 295 295 294 293 290 285 280 276 275 274 274 275 277 278 280 279 278 276 273 270 268 268 269 270 272 272 272 271 271 272 275 279 283 288 292 296 298 299 300 303 307 308 307 305 306 306 306 305 306 307 307 306 306 306 306 306 306 306 305 303 301 301 302 302 302 299 295 291
299 300 299 287 261 239 235 241 252 264 270 277 282 287 291 295 296 297 297 299 299 296 287 278 273 271 270 272 273 275 277 278 278 277 275 272 269 267 266 268 270 272 274 273 271 270 269 270 273 276 279 283 287 290 291 293 295 298 300 299 297 298 300 299 297 296 297 300 302 301 300 301 301 302 302 301 299 297 297 297 298 299 300 297 292 287
298 300 300 290 267 249 244 248 256 265 272 281 283 285 290 297 302 305 307 309 309 303 290 278 276 279 281 281 284 288 289 289 286 283 279 275 271 268 267 269 272 274 276 275 272 270 268 269 271 274 277 280 284 287 289 290 292 293 292 290 293 297 299 297 295 294 295 296 296 296 295 294 294 295 295 294 292 291 292 292 292 292 292 288 283 279
296 299 301 292 273 256 250 251 256 264 272 277 278 281 288 294 301 307 311 313 314 311 303 295 295 300 304 306 309 312 316 319 320 318 311 300 289 280 275 274 274 274 275 275 273 271 270 269 269 271 273 277 280 283 285 288 290 290 288 288 291 295 296 295 295 296 296 294 293 291 290 290 291 292 292 291 290 289 289 289 288 287 283 279 277 275
294 296 297 291 277 263 256 255 257 260 265 268 272 277 285 290 296 303 308 310 311 311 309 309 309 311 309 305 306 310 312 313 319 322 316 309 300 291 285 281 278 275 273 273 271 270 272 272 270 270 272 275 276 278 281 284 286 287 287 286 285 284 282 286 291 294 293 291 289 288 288 289 291 292 292 291 289 288 287 286 286 284 282 279 277 275
288 290 291 286 277 268 265 262 260 260 263 266 270 275 283 288 295 301 304 304 303 304 307 309 311 309 303 300 304 308 308 308 312 316 314 309 303 298 295 292 290 286 282 277 273 270 270 271 273 275 276 275 274 274 276 280 282 284 285 285 284 281 280 282 285 288 289 288 288 287 288 291 293 293 292 290 289 288 286 285 284 283 282 281 279 277
282 283 281 275 269 263 260 258 260 264 268 272 275 278 283 288 294 297 297 296 296 297 299 301 301 296 294 297 303 308 310 309 310 312 313 312 310 306 302 298 295 293 291 287 282 276 272 270 272 275 278 277 276 274 273 275 277 280 282 284 284 284 284 283 283 284 285 285 287 288 291 293 293 292 289 288 288 288 287 285 283 281 280 280 280 278
276 274 268 262 259 258 258 259 261 266 273 278 281 283 286 289 293 295 293 289 290 294 298 296 290 285 286 293 298 302 306 307 308 309 310 309 309 309 307 302 297 293 291 289 287 283 277 275 274 273 274 274 275 275 273 272 273 275 278 282 284 284 284 284 284 283 284 283 284 287 290 293 293 291 289 289 290 290 288 286 284 282 280 279 278 276
269 263 256 254 254 255 256 257 262 268 274 279 284 287 289 292 296 298 293 285 283 285 289 289 286 284 285 288 291 295 297 300 303 305 306 306 306 307 309 307 303 299 294 291 289 286 282 278 275 272 268 266 267 270 272 272 272 272 274 278 280 281 281 283 284 285 285 283 284 286 289 289 288 289 290 292 291 290 289 287 285 283 280 278 276 274
261 252 247 249 251 252 255 259 265 272 277 283 287 291 296 304 304 285 277 276 278 279 280 282 282 283 283 284 288 292 294 295 297 299 302 304 305 305 306 306 305 302 297 294 291 288 284 279 274 269 264 259 259 262 266 269 271 271 272 274 275 277 278 281 283 286 286 285 286 287 289 287 285 285 287 287 288 288 289 288 287 284 281 278 275 273
255 247 243 244 248 253 256 262 268 273 277 282 286 289 294 299 296 285 278 275 275 276 275 272 273 275 278 281 285 288 290 292 294 296 299 302 304 304 303 304 304 301 298 296 294 291 288 285 280 273 265 259 256 256 259 264 268 271 271 271 272 274 275 278 282 285 286 286 287 287 288 286 284 283 283 282 283 285 287 287 287 285 283 280 278 275
252 246 243 243 246 250 255 259 263 268 272 276 278 279 280 280 281 282 282 278 274 270 268 265 265 268 272 277 280 284 287 289 291 294 297 300 303 303 302 302 302 302 302 300 300 299 299 297 293 287 279 265 257 254 255 259 265 271 272 272 272 274 275 278 281 284 285 286 286 286 286 285 284 281 277 277 280 283 286 286 286 286 285 284 281 278